When you browse on this site, cookies collect data to enhance your experience and personalize the content and advertising you see.
Visit our Privacy Policy to learn more. By continuing to use the site, you agree to this use of cookies and data.
  • Em Portugal
  • Lista de países
  • Para 7 dias
  • Temperatura da água
  • Mapas de satélite
  • Mapa do tempo
  • Widgets de tempo
  • user-avatar
    Iniciar Sessão

    Previsão horária em Darna

    Hoje, 24 Janeiro, Quinta-feira

    Tempo Temperatura Precipitação Vento Pressão Humidade
    00:00 +11°C° 0 mm 9 m/s 747 mmHg 77%
    01:00 +11°C° 0 mm 9 m/s 747 mmHg 75%
    02:00 +11°C° 0 mm 11 m/s 747 mmHg 74%
    03:00 +9°C° 0 mm 11 m/s 747 mmHg 72%
    04:00 +9°C° 0 mm 11 m/s 747 mmHg 70%
    05:00 +9°C° 0 mm 11 m/s 747 mmHg 67%
    06:00 +9°C° 0 mm 10 m/s 747 mmHg 67%
    07:00 +9°C° 0 mm 10 m/s 747 mmHg 67%
    08:00 +8°C° 0 mm 9 m/s 748 mmHg 66%
    09:00 +11°C° 0 mm 10 m/s 748 mmHg 60%
    10:00 +12°C° 0 mm 10 m/s 748 mmHg 54%
    11:00 +13°C° 0 mm 11 m/s 748 mmHg 47%
    12:00 +14°C° 0 mm 10 m/s 748 mmHg 45%
    13:00 +16°C° 0 mm 10 m/s 748 mmHg 43%
    14:00 +17°C° 0 mm 9 m/s 748 mmHg 40%
    15:00 +16°C° 0 mm 9 m/s 748 mmHg 40%
    16:00 +16°C° 0 mm 10 m/s 748 mmHg 40%
    17:00 +16°C° 0 mm 10 m/s 748 mmHg 40%
    18:00 +15°C° 0 mm 9 m/s 748 mmHg 41%
    19:00 +13°C° 0 mm 9 m/s 748 mmHg 42%
    20:00 +13°C° 0 mm 9 m/s 748 mmHg 43%
    21:00 +13°C° 0 mm 9 m/s 748 mmHg 42%
    22:00 +12°C° 0 mm 10 m/s 748 mmHg 41%
    23:00 +12°C° 0 mm 10 m/s 748 mmHg 40%

    Amanhã, 25 Janeiro, Sexta-feira

    Tempo Temperatura Precipitação Vento Pressão Humidade
    00:00 +12°C° 0 mm 10 m/s 748 mmHg 40%
    01:00 +12°C° 0 mm 11 m/s 748 mmHg 40%
    02:00 +12°C° 0 mm 11 m/s 748 mmHg 39%
    03:00 +11°C° 0 mm 11 m/s 747 mmHg 40%
    04:00 +11°C° 0 mm 11 m/s 747 mmHg 40%
    05:00 +11°C° 0 mm 11 m/s 746 mmHg 40%
    06:00 +11°C° 0 mm 11 m/s 746 mmHg 42%
    07:00 +11°C° 0 mm 11 m/s 746 mmHg 43%
    08:00 +11°C° 0 mm 11 m/s 746 mmHg 44%
    09:00 +12°C° 0 mm 12 m/s 746 mmHg 44%
    10:00 +14°C° 0 mm 13 m/s 746 mmHg 44%
    11:00 +15°C° 0 mm 14 m/s 747 mmHg 43%
    12:00 +15°C° 0 mm 14 m/s 746 mmHg 40%
    13:00 +15°C° 0 mm 14 m/s 746 mmHg 37%
    14:00 +15°C° 0 mm 14 m/s 746 mmHg 34%
    15:00 +15°C° 0 mm 14 m/s 746 mmHg 34%
    16:00 +14°C° 0 mm 14 m/s 746 mmHg 34%
    17:00 +14°C° 0 mm 14 m/s 746 mmHg 35%
    18:00 +13°C° 0 mm 15 m/s 747 mmHg 41%
    19:00 +11°C° 0 mm 15 m/s 747 mmHg 48%
    20:00 +10°C° 0 mm 15 m/s 747 mmHg 55%
    21:00 +10°C° 0 mm 15 m/s 747 mmHg 58%
    22:00 +10°C° 0 mm 15 m/s 748 mmHg 60%
    23:00 +10°C° 0 mm 15 m/s 748 mmHg 63%

    Depois de amanhã, 26 Janeiro, Sábado

    Tempo Temperatura Precipitação Vento Pressão Humidade
    00:00 +10°C° 0 mm 14 m/s 747 mmHg 65%
    01:00 +10°C° 0 mm 14 m/s 747 mmHg 67%
    02:00 +10°C° 0 mm 14 m/s 747 mmHg 69%
    03:00 +10°C° 0 mm 12 m/s 747 mmHg 71%
    04:00 +9°C° 0 mm 11 m/s 747 mmHg 72%
    05:00 +9°C° 0 mm 10 m/s 747 mmHg 74%
    06:00 +10°C° 0 mm 9 m/s 747 mmHg 76%
    07:00 +10°C° 0 mm 8 m/s 748 mmHg 77%
    08:00 +9°C° 0 mm 7 m/s 748 mmHg 79%
    09:00 +10°C° 0.1 mm 7 m/s 748 mmHg 74%
    10:00 +11°C° 0.1 mm 7 m/s 749 mmHg 68%
    11:00 +12°C° 0.1 mm 7 m/s 749 mmHg 63%
    12:00 +12°C° 0.7 mm 7 m/s 749 mmHg 65%
    13:00 +12°C° 0.7 mm 7 m/s 749 mmHg 67%
    14:00 +12°C° 0.7 mm 7 m/s 749 mmHg 69%
    15:00 +12°C° 0.5 mm 8 m/s 749 mmHg 69%
    16:00 +11°C° 0.5 mm 8 m/s 749 mmHg 68%
    17:00 +11°C° 0.5 mm 9 m/s 749 mmHg 67%
    18:00 +11°C° 0.1 mm 9 m/s 750 mmHg 69%
    19:00 +11°C° 0.1 mm 8 m/s 750 mmHg 70%
    20:00 +10°C° 0.1 mm 8 m/s 751 mmHg 72%
    21:00 +10°C° 0.1 mm 8 m/s 751 mmHg 74%
    22:00 +10°C° 0.1 mm 8 m/s 751 mmHg 76%
    23:00 +10°C° 0.1 mm 7 m/s 751 mmHg 77%

    27 Janeiro, Domingo

    Tempo Temperatura Precipitação Vento Pressão Humidade
    00:00 +10°C° 0.5 mm 7 m/s 751 mmHg 78%
    01:00 +10°C° 0.5 mm 7 m/s 751 mmHg 79%
    02:00 +10°C° 0.5 mm 6 m/s 751 mmHg 80%
    03:00 +10°C° 0.9 mm 6 m/s 751 mmHg 80%
    04:00 +10°C° 0.9 mm 6 m/s 751 mmHg 81%
    05:00 +10°C° 0.9 mm 6 m/s 751 mmHg 81%
    06:00 +10°C° 0.3 mm 6 m/s 752 mmHg 81%
    07:00 +10°C° 0.3 mm 6 m/s 752 mmHg 80%
    08:00 +10°C° 0.3 mm 5 m/s 753 mmHg 80%
    09:00 +11°C° 0 mm 6 m/s 753 mmHg 73%
    10:00 +13°C° 0 mm 6 m/s 753 mmHg 67%
    11:00 +14°C° 0 mm 6 m/s 754 mmHg 61%
    12:00 +14°C° 0 mm 7 m/s 753 mmHg 57%
    13:00 +15°C° 0 mm 7 m/s 753 mmHg 54%
    14:00 +15°C° 0 mm 8 m/s 753 mmHg 51%
    15:00 +15°C° 0 mm 8 m/s 753 mmHg 54%
    16:00 +15°C° 0 mm 9 m/s 753 mmHg 57%
    17:00 +13°C° 0 mm 9 m/s 753 mmHg 60%
    18:00 +13°C° 0 mm 9 m/s 754 mmHg 66%
    19:00 +12°C° 0 mm 8 m/s 754 mmHg 72%
    20:00 +11°C° 0 mm 7 m/s 755 mmHg 78%
    21:00 +11°C° 0 mm 7 m/s 755 mmHg 80%
    22:00 +11°C° 0 mm 7 m/s 756 mmHg 81%
    23:00 +11°C° 0 mm 6 m/s 756 mmHg 82%

    28 Janeiro, Segunda-feira

    Tempo Temperatura Precipitação Vento Pressão Humidade
    00:00 +10°C° 0 mm 6 m/s 756 mmHg 82%
    01:00 +10°C° 0 mm 6 m/s 756 mmHg 82%
    02:00 +10°C° 0 mm 6 m/s 756 mmHg 82%
    03:00 +10°C° 0 mm 6 m/s 756 mmHg 82%
    04:00 +10°C° 0 mm 6 m/s 756 mmHg 82%
    05:00 +9°C° 0 mm 6 m/s 756 mmHg 82%
    06:00 +9°C° 0 mm 5 m/s 756 mmHg 82%
    07:00 +9°C° 0 mm 5 m/s 757 mmHg 83%
    08:00 +9°C° 0 mm 5 m/s 757 mmHg 83%
    09:00 +10°C° 0 mm 5 m/s 757 mmHg 75%
    10:00 +13°C° 0 mm 5 m/s 758 mmHg 68%
    11:00 +14°C° 0 mm 5 m/s 758 mmHg 60%
    12:00 +15°C° 0 mm 5 m/s 758 mmHg 58%
    13:00 +16°C° 0 mm 5 m/s 757 mmHg 56%
    14:00 +16°C° 0 mm 5 m/s 757 mmHg 55%
    15:00 +17°C° 0 mm 4 m/s 757 mmHg 56%
    16:00 +17°C° 0 mm 4 m/s 757 mmHg 57%
    17:00 +17°C° 0 mm 4 m/s 757 mmHg 57%
    18:00 +15°C° 0 mm 4 m/s 757 mmHg 61%
    19:00 +14°C° 0 mm 4 m/s 757 mmHg 64%
    20:00 +13°C° 0 mm 4 m/s 757 mmHg 68%
    21:00 +13°C° 0 mm 5 m/s 757 mmHg 67%
    22:00 +11°C° 0 mm 6 m/s 758 mmHg 67%
    23:00 +11°C° 0 mm 7 m/s 758 mmHg 66%

    29 Janeiro, Terça-feira

    Tempo Temperatura Precipitação Vento Pressão Humidade
    00:00 +11°C° 0 mm 7 m/s 758 mmHg 65%
    01:00 +10°C° 0 mm 8 m/s 757 mmHg 64%
    02:00 +10°C° 0 mm 8 m/s 757 mmHg 63%
    03:00 +10°C° 0 mm 8 m/s 757 mmHg 64%
    04:00 +10°C° 0 mm 8 m/s 757 mmHg 65%
    05:00 +8°C° 0 mm 9 m/s 756 mmHg 66%
    06:00 +8°C° 0 mm 9 m/s 757 mmHg 65%
    07:00 +8°C° 0 mm 10 m/s 757 mmHg 64%
    08:00 +8°C° 0 mm 10 m/s 757 mmHg 62%
    09:00 +9°C° 0 mm 11 m/s 757 mmHg 56%
    10:00 +12°C° 0 mm 11 m/s 757 mmHg 50%
    11:00 +13°C° 0 mm 11 m/s 757 mmHg 44%
    12:00 +14°C° 0 mm 10 m/s 756 mmHg 41%
    13:00 +16°C° 0 mm 10 m/s 756 mmHg 38%
    14:00 +17°C° 0 mm 9 m/s 755 mmHg 35%
    15:00 +16°C° 0 mm 8 m/s 754 mmHg 35%
    16:00 +16°C° 0 mm 8 m/s 754 mmHg 34%
    17:00 +16°C° 0 mm 7 m/s 754 mmHg 34%
    18:00 +15°C° 0 mm 6 m/s 754 mmHg 37%
    19:00 +14°C° 0 mm 6 m/s 754 mmHg 39%
    20:00 +13°C° 0 mm 5 m/s 754 mmHg 41%
    21:00 +13°C° 0 mm 5 m/s 754 mmHg 41%
    22:00 +13°C° 0 mm 5 m/s 754 mmHg 40%
    23:00 +13°C° 0 mm 5 m/s 753 mmHg 40%
    Mostrar mais